User: anonymous
Location: Caltech
(34.1382°N, 118.1253°W)
Time: 04:51:41
(UTC-07:00)
Language:

KITSAT 1 - Orbit

View from above orbital plane
View from above orbital plane
View from above satellite
View from above satellite

Ground track
Ground track

The orbit data is extracted from the following two-line orbital elements,

1 22077U 92052B   14211.03132216 -.00000033  00000-0  11673-3 0  6886
2 22077 066.0868 012.5164 0007225 207.4680 240.7495 12.86493559 31913
Epoch (UTC): 30 July 2014 00:45:06
Eccentricity: 0.0007225
inclination: 66.0868°
perigee height: 1310 km
apogee height: 1321 km
right ascension of ascending node: 12.5164°
argument of perigee: 207.4680°
revolutions per day: 12.86493559
mean anomaly at epoch: 240.7495°
orbit number at epoch: 3191

The dashed part of the orbit path shows where the satellite is in the earth's shadow,  

DLR